| time (UTC) | temp F | wind direction | speed MPH | gust MPH | rain 1hr in | rain 24hr in | rain mn in | humidity % | barometer mb |
| 20260831043005 | 64 | 233 | 8.0 | 11.0 | 0.00 | 0.00 | 0.00 | 49 | 1012.6 |
| 20260831041505 | 65 | 246 | 9.0 | 12.0 | 0.00 | 0.00 | 0.00 | 47 | 1012.5 |
| 20260831040006 | 65 | 236 | 9.0 | 13.0 | 0.00 | 0.00 | 0.00 | 47 | 1012.5 |
| 20260831034504 | 64 | 233 | 8.0 | 11.0 | 0.00 | 0.00 | 0.00 | 47 | 1012.3 |
| 20260831033005 | 66 | 226 | 8.0 | 12.0 | 0.00 | 0.00 | 0.00 | 44 | 1012.3 |
| 20260831031509 | 66 | 245 | 8.0 | 10.0 | 0.00 | 0.00 | 0.00 | 43 | 1012.2 |
| 20260831030003 | 68 | 238 | 9.0 | 11.0 | 0.00 | 0.00 | 0.00 | 41 | 1012.2 |
| 20260831024502 | 69 | 231 | 8.0 | 11.0 | 0.00 | 0.00 | 0.00 | 39 | 1012.2 |
| 20260831023001 | 71 | 245 | 7.0 | 10.0 | 0.00 | 0.00 | 0.00 | 34 | 1012.2 |
| 20260831021503 | 72 | 238 | 7.0 | 12.0 | 0.00 | 0.00 | 0.00 | 31 | 1012.2 |
| 20260831014603 | 74 | 241 | 6.0 | 10.0 | 0.00 | 0.00 | 0.00 | 28 | 1012.1 |
| 20260831013059 | 74 | 244 | 7.0 | 11.0 | 0.00 | 0.00 | 0.00 | 27 | 1012.2 |
| 20260831011559 | 75 | 257 | 7.0 | 12.0 | 0.00 | 0.00 | 0.00 | 26 | 1012.2 |
| 20260831010058 | 74 | 267 | 9.0 | 14.0 | 0.00 | 0.00 | 0.00 | 26 | 1012.4 |
| 20260831004557 | 75 | 246 | 9.0 | 12.0 | 0.00 | 0.00 | 0.00 | 27 | 1012.4 |
| 20260831003101 | 75 | 219 | 10.0 | 13.0 | 0.00 | 0.00 | 0.00 | 27 | 1012.6 |
| 20260831001557 | 75 | 267 | 8.0 | 14.0 | 0.00 | 0.00 | 0.00 | 26 | 1012.6 |
| 20260831000053 | 75 | 238 | 7.0 | 14.0 | 0.00 | 0.00 | 0.00 | 25 | 1012.9 |
| 20260830234600 | 74 | 244 | 11.0 | 15.0 | 0.00 | 0.00 | 0.00 | 24 | 1013.0 |
| 20260830233049 | 74 | 253 | 6.0 | 15.0 | 0.00 | 0.00 | 0.00 | 24 | 1013.2 |
| 20260830231550 | 74 | 221 | 10.0 | 16.0 | 0.00 | 0.00 | 0.00 | 23 | 1013.2 |
| 20260830230048 | 74 | 227 | 9.0 | 16.0 | 0.00 | 0.00 | 0.00 | 24 | 1013.3 |
| 20260830224544 | 74 | 221 | 9.0 | 17.0 | 0.00 | 0.00 | 0.00 | 24 | 1013.5 |
| 20260830223042 | 73 | 256 | 6.0 | 17.0 | 0.00 | 0.00 | 0.00 | 22 | 1013.6 |
| 20260830221541 | 72 | 269 | 13.0 | 20.0 | 0.00 | 0.00 | 0.00 | 19 | 1013.8 |
| 20260830220037 | 72 | 230 | 6.0 | 14.0 | 0.00 | 0.00 | 0.00 | 29 | 1014.3 |
| 20260830214543 | 72 | 275 | 9.0 | 18.0 | 0.00 | 0.00 | 0.00 | 27 | 1014.5 |
| 20260830213033 | 71 | 231 | 10.0 | 16.0 | 0.00 | 0.00 | 0.00 | 26 | 1014.7 |
| 20260830211534 | 71 | 231 | 10.0 | 18.0 | 0.00 | 0.00 | 0.00 | 29 | 1014.7 |
| 20260830210031 | 70 | 232 | 10.0 | 17.0 | 0.00 | 0.00 | 0.00 | 27 | 1014.7 |
| 20260830204528 | 69 | 229 | 9.0 | 16.0 | 0.00 | 0.00 | 0.00 | 31 | 1014.7 |
| 20260830203043 | 69 | 229 | 10.0 | 16.0 | 0.00 | 0.00 | 0.00 | 30 | 1015.0 |
| 20260830201523 | 68 | 224 | 11.0 | 18.0 | 0.00 | 0.00 | 0.00 | 34 | 1015.1 |
| 20260830200021 | 68 | 252 | 10.0 | 15.0 | 0.00 | 0.00 | 0.00 | 36 | 1015.1 |
| 20260830194519 | 67 | 261 | 12.0 | 21.0 | 0.00 | 0.00 | 0.00 | 38 | 1015.4 |
| 20260830193016 | 67 | 238 | 8.0 | 15.0 | 0.00 | 0.00 | 0.00 | 39 | 1015.6 |
| 20260830191514 | 66 | 296 | 5.0 | 16.0 | 0.00 | 0.00 | 0.00 | 42 | 1015.8 |
| 20260830190017 | 65 | 218 | 8.0 | 17.0 | 0.00 | 0.00 | 0.00 | 44 | 1015.9 |
| 20260830184521 | 64 | 219 | 11.0 | 16.0 | 0.00 | 0.00 | 0.00 | 45 | 1016.1 |
| 20260830183017 | 64 | 263 | 11.0 | 17.0 | 0.00 | 0.00 | 0.00 | 46 | 1016.2 |
| 20260830181507 | 62 | 259 | 8.0 | 15.0 | 0.00 | 0.00 | 0.00 | 48 | 1016.4 |
| 20260830180004 | 62 | 259 | 9.0 | 14.0 | 0.00 | 0.00 | 0.00 | 52 | 1016.4 |
| 20260830174502 | 60 | 252 | 5.0 | 13.0 | 0.00 | 0.00 | 0.00 | 54 | 1016.4 |
| 20260830173114 | 60 | 254 | 9.0 | 15.0 | 0.00 | 0.00 | 0.00 | 55 | 1016.5 |
| 20260830171600 | 59 | 218 | 12.0 | 17.0 | 0.00 | 0.00 | 0.00 | 57 | 1016.6 |
| 20260830170056 | 58 | 257 | 8.0 | 16.0 | 0.00 | 0.00 | 0.00 | 59 | 1016.8 |
| 20260830164553 | 58 | 242 | 12.0 | 18.0 | 0.00 | 0.00 | 0.00 | 61 | 1016.8 |
| 20260830163051 | 57 | 232 | 12.0 | 17.0 | 0.00 | 0.00 | 0.00 | 64 | 1017.0 |
| 20260830161549 | 56 | 251 | 14.0 | 21.0 | 0.00 | 0.00 | 0.00 | 66 | 1017.0 |
| 20260830160047 | 56 | 236 | 12.0 | 18.0 | 0.00 | 0.00 | 0.00 | 67 | 1017.1 |
| 20260830154547 | 55 | 236 | 12.0 | 18.0 | 0.00 | 0.00 | 0.00 | 68 | 1017.1 |
| 20260830153044 | 55 | 237 | 13.0 | 22.0 | 0.00 | 0.00 | 0.00 | 68 | 1017.1 |
| 20260830151544 | 55 | 225 | 11.0 | 16.0 | 0.00 | 0.00 | 0.00 | 69 | 1017.1 |
| 20260830150049 | 53 | 241 | 12.0 | 18.0 | 0.00 | 0.00 | 0.00 | 72 | 1017.0 |
| 20260830144544 | 53 | 213 | 14.0 | 19.0 | 0.00 | 0.00 | 0.00 | 73 | 1017.0 |
| 20260830143042 | 53 | 232 | 12.0 | 17.0 | 0.00 | 0.00 | 0.00 | 75 | 1016.9 |
| 20260830141538 | 51 | 218 | 12.0 | 17.0 | 0.00 | 0.00 | 0.00 | 79 | 1016.7 |
| 20260830140038 | 50 | 218 | 12.0 | 17.0 | 0.00 | 0.00 | 0.00 | 80 | 1016.7 |
| 20260830134539 | 49 | 210 | 10.0 | 17.0 | 0.00 | 0.00 | 0.00 | 81 | 1016.7 |
| 20260830133035 | 47 | 202 | 9.0 | 13.0 | 0.00 | 0.00 | 0.00 | 83 | 1016.5 |
| 20260830131535 | 47 | 207 | 10.0 | 13.0 | 0.00 | 0.00 | 0.00 | 80 | 1016.4 |
| 20260830130032 | 48 | 213 | 8.0 | 13.0 | 0.00 | 0.00 | 0.00 | 78 | 1016.2 |
| 20260830124538 | 48 | 205 | 10.0 | 12.0 | 0.00 | 0.00 | 0.00 | 77 | 1016.2 |
| 20260830123028 | 49 | 215 | 11.0 | 14.0 | 0.00 | 0.00 | 0.00 | 75 | 1016.2 |
| 20260830121525 | 50 | 240 | 11.0 | 14.0 | 0.00 | 0.00 | 0.00 | 71 | 1016.3 |
| 20260830120030 | 50 | 222 | 13.0 | 16.0 | 0.00 | 0.00 | 0.00 | 69 | 1016.3 |
| 20260830114524 | 51 | 222 | 12.0 | 15.0 | 0.00 | 0.00 | 0.00 | 69 | 1016.3 |
| 20260830113023 | 52 | 215 | 9.0 | 13.0 | 0.00 | 0.00 | 0.00 | 69 | 1016.1 |
| 20260830111521 | 51 | 227 | 12.0 | 16.0 | 0.00 | 0.00 | 0.00 | 72 | 1016.0 |
| 20260830110020 | 51 | 225 | 12.0 | 15.0 | 0.00 | 0.00 | 0.00 | 72 | 1016.0 |
| 20260830104518 | 51 | 223 | 11.0 | 15.0 | 0.00 | 0.00 | 0.00 | 72 | 1015.9 |
| 20260830103018 | 51 | 220 | 10.0 | 15.0 | 0.00 | 0.00 | 0.00 | 73 | 1015.8 |
| 20260830101516 | 51 | 223 | 11.0 | 15.0 | 0.00 | 0.00 | 0.00 | 74 | 1015.8 |
| 20260830100030 | 51 | 225 | 11.0 | 15.0 | 0.00 | 0.00 | 0.00 | 76 | 1015.7 |
| 20260830094515 | 50 | 221 | 10.0 | 13.0 | 0.00 | 0.00 | 0.00 | 76 | 1015.8 |
| 20260830093017 | 52 | 221 | 11.0 | 16.0 | 0.00 | 0.00 | 0.00 | 73 | 1015.7 |
| 20260830091510 | 53 | 232 | 10.0 | 15.0 | 0.00 | 0.00 | 0.00 | 72 | 1015.8 |
| 20260830090009 | 52 | 240 | 11.0 | 15.0 | 0.00 | 0.00 | 0.00 | 72 | 1015.7 |
| 20260830084505 | 53 | 242 | 11.0 | 19.0 | 0.00 | 0.00 | 0.00 | 70 | 1015.7 |
| 20260830083004 | 54 | 241 | 13.0 | 19.0 | 0.00 | 0.00 | 0.00 | 69 | 1015.6 |
| 20260830081503 | 53 | 246 | 13.0 | 18.0 | 0.00 | 0.00 | 0.00 | 69 | 1015.7 |
| 20260830080002 | 54 | 236 | 14.0 | 18.0 | 0.00 | 0.00 | 0.00 | 68 | 1015.7 |
| 20260830074559 | 54 | 236 | 14.0 | 18.0 | 0.00 | 0.00 | 0.00 | 68 | 1015.6 |
| 20260830073103 | 54 | 227 | 13.0 | 18.0 | 0.00 | 0.00 | 0.00 | 68 | 1015.5 |
| 20260830071619 | 54 | 236 | 11.0 | 17.0 | 0.00 | 0.00 | 0.00 | 68 | 1015.6 |
| 20260830070054 | 54 | 227 | 13.0 | 17.0 | 0.00 | 0.00 | 0.00 | 67 | 1015.6 |
| 20260830064553 | 55 | 227 | 14.0 | 18.0 | 0.00 | 0.00 | 0.00 | 67 | 1015.6 |
| 20260830063052 | 55 | 233 | 10.0 | 16.0 | 0.00 | 0.00 | 0.00 | 66 | 1015.5 |
| 20260830061555 | 55 | 234 | 12.0 | 18.0 | 0.00 | 0.00 | 0.00 | 66 | 1015.5 |
| 20260830060056 | 56 | 234 | 13.0 | 19.0 | 0.00 | 0.00 | 0.00 | 65 | 1015.4 |
| 20260830054551 | 55 | 239 | 11.0 | 16.0 | 0.00 | 0.00 | 0.00 | 66 | 1015.5 |
| 20260830053049 | 56 | 236 | 13.0 | 20.0 | 0.00 | 0.00 | 0.00 | 64 | 1015.3 |
| 20260830051550 | 56 | 238 | 14.0 | 18.0 | 0.00 | 0.00 | 0.00 | 64 | 1015.2 |
| 20260830050050 | 56 | 241 | 12.0 | 18.0 | 0.00 | 0.00 | 0.00 | 65 | 1015.4 |
| 20260830044624 | 57 | 225 | 12.0 | 16.0 | 0.00 | 0.00 | 0.00 | 63 | 1015.4 |